Location: Taupo
(38.6830°S, 176.0830°E)
Time: 18:16:28
(UTC+13:00)

SeaSat 1 - Pass Details

Date: 24 January 2019
Orbit: 744 x 748 km, 108.0° (Epoch: 16 February)

Event Time Altitude Azimuth Distance (km) Brightness Sun altitude
Rises 23:36:55 0° 156° (SSE) 3,219 6.2 -26.5°
Reaches altitude 10° 23:39:12 10° 156° (SSE) 2,289 5.4 -26.8°
Enters shadow 23:44:00 82° 185° (S) 766 2.4 -27.2°
